Regional Weather Roundup
Issued by NWS

Home | Current Version | Previous Version | Text Only | Print | Product List | Glossary Off
Versions: 1 2 3 4 5 6 7 8 9 10 11 12 13 14 15 16 17 18 19 20 21 22 23 24 25 26 27 28 29 30 31 32 33 34 35 36 37 38 39 40 41 42 43 44 45 46 47 48 49 50

000
ASUS43 KBIS 020102
RWRND

NORTH DAKOTA REGIONAL WEATHER ROUNDUP
NATIONAL WEATHER SERVICE BISMARCK ND
800 PM CDT WED JUL 01 2015

NOTE: "FAIR" INDICATES FEW OR NO CLOUDS BELOW 12,000 FEET WITH NO
SIGNIFICANT WEATHER AND/OR OBSTRUCTIONS TO VISIBILITY.


NDZ001>003-009>011-017-020200-
NORTHWEST NORTH DAKOTA

CITY           SKY/WX    TMP DP  RH WIND       PRES   REMARKS
WILLISTON      CLOUDY    75  58  55 NW3       29.96R HAZE
MINOT          MOSUNNY   72  63  73 N6        29.93S
MINOT AFB      MOSUNNY   73  70  92 NE5       29.93S
$$

NDZ018>021-031>035-040>046-020200-
SOUTHWEST NORTH DAKOTA

CITY           SKY/WX    TMP DP  RH WIND       PRES   REMARKS
BISMARCK       CLOUDY    74  67  78 E6        29.94R
DICKINSON      PTSUNNY   72  61  68 CALM      29.96F
GARRISON         N/A     74  64  71 NE3       29.94S
HETTINGER ARPT PTSUNNY   73  62  68 N5        29.98F
$$

NDZ004>008-012>016-024-026-027-054-020200-
NORTHEAST NORTH DAKOTA

CITY           SKY/WX    TMP DP  RH WIND       PRES   REMARKS
GRAND FORKS    MOSUNNY   75  63  66 S5        29.92S HAZE
GRND FRKS AFB  SUNNY     73  63  70 S8        29.93S
DEVILS LAKE    MOSUNNY   73  59  60 SE6       29.93R
$$

NDZ022-023-025-028>030-036>039-047>053-020200-
SOUTHEAST NORTH DAKOTA

CITY           SKY/WX    TMP DP  RH WIND       PRES   REMARKS
FARGO          SUNNY     72  56  57 S10       29.94F
JAMESTOWN      SUNNY     73  63  70 SE8       29.94R
$$



USA.gov is the U.S. government's official web portal to all federal, state and local government web resources and services.